Regional Weather Roundup
Issued by NWS Albany, NY

Current Version | Previous Version | Graphics & Text | Print | Product List | Glossary Off
Versions: 1 2 3 4 5 6 7 8 9 10 11 12 13 14 15 16 17 18 19 20 21 22 23 24 25 26 27

000
ASUS41 KALY 290510
RWRALY

NEW YORK STATE HOURLY WEATHER ROUNDUP
NATIONAL WEATHER SERVICE ALBANY NY
100 AM EDT MON MAY 29 2017

NOTE: "FAIR" INDICATES FEW OR NO CLOUDS BELOW 12,000 FEET WITH NO
SIGNIFICANT WEATHER AND/OR NO OBSTRUCTIONS TO VISIBILITY.

NYZ032-033-038>043-046>054-057>066-NYZ062>081-082-084-290600-
EAST


CITY           SKY/WX    TMP DP  RH WIND       PRES   REMARKS
ALBANY         MOCLDY    60  48  64 SE9       29.90S
GLENS FALLS    NOT AVBL
POUGHKEEPSIE   CLOUDY    57  49  74 CALM      29.91F
NEWBURGH       CLOUDY    57  52  82 E9        29.93F
MONTGOMERY     CLOUDY    57  53  86 CALM      29.91S
WHITE PLAINS   CLOUDY    58  50  75 E7        29.91F
ISLIP          CLOUDY    58  53  84 E8        29.92F
NEW YORK CITY  CLOUDY    62  51  67 E10       29.90F
CENTRAL PARK   CLOUDY    61  51  70 VRB5      29.93F
$$

NYZ005>009-017-018-044>046-055-056-290600-
CENTRAL


CITY           SKY/WX    TMP DP  RH WIND       PRES   REMARKS
FULTON         CLOUDY    67  56  67 SE6       29.75F
SYRACUSE       CLOUDY    66  57  72 SE8       29.76F
ROME           MOCLDY    65  55  70 E10       29.81F
ELMIRA         CLOUDY    66  59  78 MISG      29.77F
BINGHAMTON     CLOUDY    60  54  80 SE14      29.83F
MONTICELLO     PTCLDY    54  48  82 E5        29.92F
$$

NYZ026>034-041>043-087-290600-
NORTH


CITY           SKY/WX    TMP DP  RH WIND       PRES   REMARKS
WATERTOWN      MOCLDY    67  57  70 SE6       29.75F
FORT DRUM      NOT AVBL
OGDENSBURG     FAIR      67  56  68 S5        29.77F
MASSENA        CLOUDY    65  56  72 E5        29.80F
SARANAC LAKE   PTCLDY    49  49 100 CALM      29.85F
PLATTSBURGH    PTCLDY    59  53  80 S9        29.85S
$$

NYZ001>004-010>016-019>021-085-290600-
WEST


CITY           SKY/WX    TMP DP  RH WIND       PRES   REMARKS
NIAGARA FALLS  CLOUDY    67  58  72 S10       29.67F
BUFFALO        CLOUDY    66  58  75 SW13      29.70F
DUNKIRK        CLOUDY    64  60  87 SW5       29.70F
JAMESTOWN      CLOUDY    61  55  82 S13G22    29.74S
WELLSVILLE     LGT RAIN  61  57  87 S8G17     29.78F
ROCHESTER      CLOUDY    67  59  75 S6        29.71F
PENN YAN       CLOUDY    66  58  75 S8        29.76F
$$

             KEY
       WCI = WIND CHILL INDEX
       VSB = VISIBILITY
       HX  = HEAT INDEX
$$




USA.gov is the U.S. government's official web portal to all federal, state and local government web resources and services.